Location: Ahausen
(50.4985°N, 8.2722°E)
Time: 07:33:23
(UTC+00:00)

NOSS 3-1 (C) - Pass Details

Date: 18 September 2020
Orbit: 743 x 1466 km, 63.4° (Epoch: 09 October)

Event Time Altitude Azimuth Distance (km) Brightness Sun altitude
Rises 23:20:31 0° 315° (NW) 3,819 7.1 -38.1°
Reaches altitude 10° 23:23:00 10° 318° (NW) 2,961 6.4 -38.1°
Enters shadow 23:28:49 58° 351° (N) 1,398 4.3 -38.1°
